Flint, MI

5:39 AM EST on February 26, 2017 (GMT -0500)
Bishop International

Weather History for KFNT - June, 2012

Change the Weather History Date:

Thursday, June 14, 2012

  Actual Average Record
Temperature  
Mean Temperature 61 °F 66 °F  
Max Temperature 80 °F 78 °F 97 °F (1987)
Min Temperature 42 °F 55 °F 37 °F (1978)
Degree Days  
Heating Degree Days 4 2  
Month to date heating degree days 45 46  
Since 1 June heating degree days 45 46  
Since 1 July heating degree days 5448 6933  
Cooling Degree Days 0 3  
Month to date cooling degree days 33 35  
Year to date cooling degree days 121 67  
Since 1 June cooling degree days 33 35  
Growing Degree Days 11 (Base 50)    
Moisture  
Dew Point 43 °F    
Average Humidity 55    
Maximum Humidity 83    
Minimum Humidity 26    
Precipitation  
Precipitation 0.00 in 0.11 in 1.23 in (1961)
Month to date precipitation 0.59 1.45  
Year to date precipitation 14.77 12.44  
Snow  
Snow 0.00 in 0.00 in 0.00 in ()
Month to date snowfall 0.0 0.0  
Since 1 June snowfall 0.0 0.0  
Since 1 July snowfall 33.2 47.4  
Snow Depth 0.00 in    
Sea Level Pressure  
Sea Level Pressure 30.19 in    
Wind  
Wind Speed 6 mph (ESE)    
Max Wind Speed 14 mph    
Max Gust Speed 35 mph    
Visibility 10 miles    
Events      
T = Trace of Precipitation, MM = Missing Value Source: NWS Daily Summary

Daily Weather History Graph

Daily Weather History Graph

Search for Another Location

Airport or City:

Trip Planner

Search our weather history database for the weather conditions in past years. The results will help you decide how hot, cold, wet, or windy it might be!

Date:

Astronomy

Jun. 14, 2012 Rise Set
Actual Time 5:55 AM EDT 9:15 PM EDT
Civil Twilight 5:20 AM EDT 9:50 PM EDT
Nautical Twilight 4:34 AM EDT 10:36 PM EDT
Astronomical Twilight 3:37 AM EDT 11:33 PM EDT
Moon 2:42 AM EDT (6/14) 4:53 PM EDT (6/14)
Length of Visible Light 16h 30m
Length of Day
15h 20m
Waning Crescent, 21% of the Moon is Illuminated
Jun 14
Waning Crescent
Jun 19
New
Jun 26
First Quarter
Jul 3
Full
Jul 10
Last Quarter

Hourly Weather History & Observations

Time (EDT) Temp. Windchill Dew Point Humidity Pressure Visibility Wind Dir Wind Speed Gust Speed Precip Events Conditions
12:53 AM 51.1 °F - 39.0 °F 63% 30.19 in 10.0 mi East 4.6 mph - N/A   Clear
1:53 AM 50.0 °F - 39.0 °F 66% 30.19 in 10.0 mi Calm Calm - N/A   Clear
2:53 AM 48.9 °F - 39.0 °F 69% 30.19 in 10.0 mi Calm Calm - N/A   Clear
3:53 AM 46.9 °F - 39.9 °F 77% 30.20 in 10.0 mi ESE 3.5 mph - N/A   Clear
4:53 AM 46.9 °F - 41.0 °F 80% 30.22 in 10.0 mi Calm Calm - N/A   Clear
5:53 AM 44.1 °F 40.8 °F 39.9 °F 85% 30.22 in 10.0 mi ESE 5.8 mph - N/A   Clear
6:53 AM 46.9 °F - 41.0 °F 80% 30.23 in 10.0 mi East 3.5 mph - N/A   Clear
7:53 AM 54.0 °F - 44.1 °F 69% 30.25 in 10.0 mi Calm Calm - N/A   Clear
8:53 AM 59.0 °F - 46.9 °F 64% 30.24 in 10.0 mi ESE 3.5 mph - N/A   Clear
9:53 AM 68.0 °F - 48.9 °F 50% 30.23 in 10.0 mi SE 10.4 mph - N/A   Clear
10:53 AM 71.1 °F - 45.0 °F 39% 30.23 in 10.0 mi SSE 8.1 mph - N/A   Clear
11:53 AM 72.0 °F - 46.0 °F 40% 30.22 in 10.0 mi East 8.1 mph - N/A   Clear
12:53 PM 73.0 °F - 43.0 °F 34% 30.21 in 10.0 mi SE 8.1 mph - N/A   Clear
1:53 PM 75.9 °F - 44.1 °F 32% 30.21 in 10.0 mi ESE 5.8 mph - N/A   Clear
2:53 PM 78.1 °F - 45.0 °F 31% 30.19 in 10.0 mi ENE 4.6 mph - N/A   Clear
3:53 PM 79.0 °F - 45.0 °F 30% 30.18 in 10.0 mi East 10.4 mph - N/A   Clear
4:53 PM 79.0 °F - 46.0 °F 31% 30.17 in 10.0 mi SE 9.2 mph - N/A   Clear
5:53 PM 80.1 °F - 43.0 °F 27% 30.16 in 10.0 mi South 10.4 mph - N/A   Clear
6:53 PM 77.0 °F - 41.0 °F 28% 30.15 in 10.0 mi South 8.1 mph - N/A   Clear
7:53 PM 73.0 °F - 45.0 °F 37% 30.15 in 10.0 mi SE 6.9 mph - N/A   Clear
8:53 PM 70.0 °F - 45.0 °F 41% 30.15 in 10.0 mi SE 8.1 mph - N/A   Clear
9:53 PM 66.9 °F - 45.0 °F 45% 30.16 in 10.0 mi SE 10.4 mph - N/A   Clear
10:53 PM 64.9 °F - 43.0 °F 45% 30.15 in 10.0 mi SE 6.9 mph - N/A   Clear
11:53 PM 57.9 °F - 43.0 °F 58% 30.14 in 10.0 mi ESE 3.5 mph - N/A   Clear